Probability
0 0 0 0 0 0 0 0 0 0 0 0 0 0 0 0 0 0 0 0 0 0 0 0 0 0 0 0 0 0 0 0 0 0 0 0 0 0 0 0 0 0 0
0 0 0 0 0 0 0 0 0 0 0 0 0 0 0 0 0 0 0 0 0 0 0 0 0 0 0 0 0 0 0 0 0 0 0 0 0 0 0 0 0 0 0
0 0 0 0 0 0 0 0 0 0 0 0 0 0 0 0 0 0 0 0 0 0 0 0 0 0 0 0 0 0 0 0 0 0 0 0 0 0 0 0 0 0 0
0 0 0 0 0 0 0 0 0 0 0 0 0 0 0 0 0 0 0 0 0 0 0 0 0 0 0 0 0 0 0 0 0 0 0 0 0 0 0 0 0 0 0
0 0 0 0 0 0 0 0 0 0 0 0 0 0 0 0 0 0 0 0 0 0 0 0 0 0 0 0 0 0 0 0 0 0 0 0 0 0 0 0 0 0 0
0 0 0 0 0 0 0 0 0 0 0 0 0 0 0 0 0 0 0 0 0 0 0 0 0 0 0 0 0 0 0 0 0 1 1 1 0 0 0 0 0 0 0
1 1 1 0 0 0 0 0 0 0 0 0 0 0 0 0 0 0 0 0 0 0 0 0 0 0 0 0 0 0 0 1 1 2 2 2 0 0 0 0 0 0 0
0 1 1 0 0 0 0 0 0 0 0 0 0 0 0 0 0 0 0 0 0 0 0 0 0 0 0 0 0 0 0 1 2 2 2 1 1 1 0 0 0 0 0
0 0 0 0 0 0 0 0 0 0 0 0 0 0 0 0 0 0 0 0 0 0 0 0 0 0 0 0 0 0 0 0 1 1 1 1 2 2 1 0 0 0 0
0 1 1 1 0 0 0 0 0 0 0 0 0 0 0 0 0 0 0 0 0 0 0 0 0 0 0 0 0 0 0 0 0 0 1 2 3 2 1 0 0 0 0
1 2 3 2 1 1 0 0 0 0 1 0 0 0 0 0 0 0 0 0 0 0 0 0 0 0 0 0 0 0 0 0 0 0 1 2 2 1 0 0 0 0 0
2 2 3 3 3 2 1 0 0 0 0 0 0 0 0 0 0 0 0 0 0 0 0 0 0 0 0 0 0 0 0 0 0 0 0 1 1 0 0 0 0 0 0
2 2 2 3 3 3 2 0 0 0 0 0 0 0 0 0 0 0 0 0 0 0 0 0 0 0 0 0 0 0 0 0 0 0 0 0 0 0 0 0 1 0 0
3 3 2 1 1 1 1 0 0 0 0 0 0 0 0 0 0 0 0 0 0 0 0 0 0 0 0 0 0 0 0 0 0 0 0 0 0 0 0 0 0 0 0
5 4 2 1 0 0 0 0 0 0 0 0 0 0 0 0 0 0 0 0 0 0 0 0 0 0 0 0 0 0 0 0 0 0 0 0 0 0 0 0 0 0 0
5 4 2 1 0 0 0 0 0 0 0 0 0 0 0 0 0 0 0 0 0 0 0 0 0 0 0 0 0 0 0 0 0 0 0 0 0 0 0 0 0 0 0
5 3 2 0 0 0 0 0 0 0 0 0 0 0 0 0 0 0 0 0 0 0 0 0 0 0 0 0 0 0 0 0 0 0 0 0 0 0 0 0 0 0 0
3 3 2 1 1 0 0 0 0 0 0 0 0 0 0 0 0 0 0 0 0 0 0 0 0 0 0 0 0 0 0 0 0 0 0 0 0 0 0 0 0 0 0
2 1 1 1 1 0 0 0 0 0 0 0 0 0 0 0 0 0 0 0 0 0 0 0 0 0 0 0 0 0 0 0 0 0 0 0 0 0 0 0 0 0 0
1 0 0 1 1 0 0 0 0 0 0 0 0 0 0 0 0 0 0 0 0 0 0 0 0 0 0 0 0 0 0 0 0 0 0 0 0 0 0 0 0 0 0
0 0 0 0 0 0 0 0 0 0 0 0 0 0 0 0 0 0 0 0 0 0 0 0 0 0 0 0 0 0 0 0 0 0 0 0 0 0 0 0 0 0 0
0 0 0 0 0 0 0 0 0 0 0 0 0 0 0 0 0 0 0 0 0 0 0 0 0 0 0 0 0 0 0 0 0 0 0 0 0 0 0 0 0 0 0
0 0 0 0 0 0 0 0 0 0 0 0 0 0 0 0 0 0 0 0 0 0 0 0 0 0 0 0 0 0 0 0 0 0 0 0 0 0 0 0 0 0 0
0 0 0 0 0 0 0 0 0 0 0 0 0 0 0 0 0 0 0 0 0 0 0 0 0 0 0 0 0 0 0 0 0 0 0 0 0 0 0 0 0 0 0
0 0 0 0 0 0 0 0 0 0 0 0 0 0 0 0 0 0 0 0 0 0 0 0 0 0 0 0 0 0 0 0 0 0 0 0 0 0 0 0 0 0 0
0 0 0 0 0 0 0 0 0 0 0 0 0 0 0 0 0 0 0 0 0 0 0 0 0 0 0 0 0 0 0 0 0 0 0 0 0 0 0 0 0 0 0
Wind_Speed
2 2 1 1 2 2 2 2 2 3 3 3 3 4 4 4 4 3 2 8 8 8 8 9 9 9 9 8 8 8 7 7 7 7 7 7 7 7 7 6 6 6 6
2 2 2 1 1 1 1 2 2 2 2 2 2 3 4 4 4 4 3 4 8 8 8 9 9 9 9 8 8 8 8 7 7 7 7 6 6 6 7 7 6 6 5
3 3 2 1 1 1 2 2 2 2 2 2 2 2 3 3 4 4 3 2 4 7 9 9 9 9 9 9 8 8 8 8 8 8 7 7 7 6 6 7 7 6 6
4 3 3 2 2 1 1 1 2 2 1 2 1 1 2 2 3 4 3 3 2 3 6 9 9 8 9 9 9 9 9 9 9 9 8 8 8 8 7 7 7 6 6
5 4 3 2 3 2 2 2 1 1 2 2 2 1 1 2 2 3 4 4 4 3 3 5 8 8 10 10 10 10 10 10 10 10 10 10 10 9 8 8 7 7 7
5 4 3 3 3 2 2 1 2 1 1 2 1 1 0 1 2 3 4 4 4 5 5 5 5 6 10 10 10 11 11 11 11 11 11 11 11 10 9 9 9 8 8
5 5 4 4 4 3 3 3 2 2 1 1 2 1 1 1 3 3 4 4 5 6 6 6 5 4 4 8 9 10 11 11 11 11 11 11 11 10 10 10 10 9 9
6 6 5 4 4 4 4 4 3 2 2 2 3 2 1 2 2 3 4 5 6 5 6 7 7 6 5 4 6 10 11 12 12 12 12 11 11 10 11 11 10 10 10
6 6 6 5 5 5 5 5 5 5 3 2 2 3 3 3 2 2 3 5 5 5 6 6 8 8 8 6 6 9 12 11 12 13 13 12 12 11 12 12 12 11 11
6 6 6 6 6 5 5 6 5 4 4 3 2 2 2 3 2 2 2 3 5 6 7 6 7 8 8 7 7 10 12 11 12 13 13 13 13 13 13 13 13 13 12
6 7 7 6 6 5 6 5 5 5 4 4 4 3 2 1 2 2 3 2 2 4 5 7 6 6 8 8 7 10 12 12 12 13 13 13 13 13 13 14 14 14 13
4 6 7 6 6 6 6 6 6 7 6 5 4 4 4 3 4 4 4 4 3 3 4 5 6 6 7 7 10 12 13 13 13 13 13 13 13 13 13 14 14 15 14
4 6 6 6 6 6 6 6 6 7 7 6 6 5 5 4 3 4 3 3 3 3 3 3 5 6 6 6 7 12 12 13 13 13 12 13 13 12 12 13 14 14 13
5 5 6 6 7 7 7 6 6 7 6 7 8 6 5 5 5 5 4 4 3 3 3 5 2 5 5 5 7 10 8 11 12 12 12 12 12 12 12 12 11 11 11
3 4 5 6 6 7 7 6 5 7 6 7 7 7 6 5 5 5 4 5 4 4 5 4 3 3 4 5 7 6 7 9 10 11 11 11 11 11 11 11 11 11 10
3 3 4 5 5 6 6 6 6 6 7 6 6 7 7 5 5 5 5 5 5 5 5 3 3 3 3 4 5 6 7 8 9 10 10 10 11 11 11 11 11 11 11
4 4 4 5 5 6 5 6 7 7 8 7 7 8 9 7 6 5 5 5 5 5 6 4 3 3 3 4 4 4 5 5 5 9 10 10 10 10 10 11 11 11 11
3 4 4 4 5 5 5 6 7 7 8 8 8 8 8 6 7 6 5 6 5 6 6 6 4 3 4 4 3 4 4 4 5 6 8 9 10 10 10 10 10 10 10
2 2 3 3 4 4 5 5 6 6 7 7 7 7 7 6 7 5 6 5 5 5 5 5 5 3 3 2 2 3 3 3 4 4 6 8 8 9 9 9 9 9 10
2 2 2 2 3 3 3 4 5 5 6 6 5 6 6 6 7 6 6 6 5 4 4 5 5 4 3 2 2 3 3 2 3 3 4 4 5 7 7 8 8 9 9
2 2 1 1 1 1 2 3 4 4 5 4 4 4 4 5 6 5 4 4 4 4 4 4 4 3 3 2 3 3 3 3 3 2 2 2 2 3 4 6 7 8 8
1 1 1 0 1 1 3 2 2 3 3 3 3 2 2 3 3 4 4 4 4 4 4 4 4 4 4 4 3 3 3 2 3 2 2 3 2 3 3 3 5 7 8
1 2 1 1 1 2 3 2 1 0 0 1 1 1 1 1 1 1 1 1 2 3 5 5 4 5 4 4 3 4 4 3 4 1 2 3 2 3 3 3 5 6 6
2 2 1 1 1 3 3 2 1 2 2 2 1 1 0 1 1 1 0 1 1 2 2 3 3 4 3 3 3 3 3 3 2 1 2 3 2 2 2 2 3 4 5
2 2 2 2 2 3 5 3 2 2 3 3 3 3 3 2 3 2 2 1 1 2 2 1 0 1 2 2 1 1 1 1 2 1 1 2 1 2 2 2 2 2 4
2 3 3 3 4 4 5 5 3 2 3 2 3 4 6 5 5 5 3 2 2 2 2 3 3 3 3 3 2 1 2 2 2 1 0 1 1 1 2 1 2 2 2
Wind_Direction
134 121 109 97 95 94 99 102 99 104 103 112 134 140 145 148 149 152 159 166 163 164 165 167 166 163 163 163 162 164 165 163 161 161 161 163 165 165 164 162 159 157 161
148 145 139 129 116 112 112 114 112 110 106 119 140 151 158 158 160 163 163 177 178 177 180 181 179 177 178 178 179 180 180 179 175 174 175 176 178 181 178 175 177 177 177
161 156 156 163 163 129 117 100 97 103 118 123 128 143 154 161 163 167 168 179 189 192 192 193 193 192 192 192 193 194 193 191 188 188 189 190 190 192 189 189 190 192 193
169 160 168 186 175 146 137 129 121 111 108 121 130 146 151 159 172 175 177 187 192 199 206 207 205 206 206 207 206 205 204 201 201 202 203 202 202 203 202 201 201 201 202
176 170 182 186 165 156 163 171 131 133 144 146 156 161 171 183 187 192 198 204 206 209 214 224 221 217 218 218 217 216 214 212 211 212 213 211 211 210 209 208 208 207 209
178 171 185 187 167 162 169 162 145 126 141 155 152 117 204 223 213 216 215 214 218 220 219 225 228 230 228 227 227 225 223 220 218 219 219 219 218 215 213 214 213 215 217
181 176 191 183 178 181 184 173 158 151 149 126 104 46 348 265 237 234 226 224 227 226 221 222 222 225 233 234 232 230 230 228 224 222 222 222 223 220 217 218 217 219 221
186 193 190 190 186 182 181 179 167 158 171 161 144 122 334 319 272 237 223 225 231 226 226 225 223 222 226 229 232 233 235 235 231 227 223 221 221 220 219 220 219 221 223
197 198 193 193 190 188 195 194 183 175 182 189 173 154 167 235 281 284 238 230 226 225 230 230 227 226 225 226 232 237 237 237 236 234 229 224 221 219 220 222 223 223 224
200 200 199 197 195 196 201 203 193 185 176 191 194 200 182 168 186 284 293 249 235 232 231 232 232 227 223 223 227 231 234 234 234 237 235 230 227 223 222 225 228 228 227
207 204 204 201 201 203 208 202 191 193 190 190 187 181 182 183 186 198 266 284 264 242 234 231 232 231 227 224 227 232 232 232 232 234 235 232 231 229 227 228 233 234 232
213 211 205 204 206 207 209 206 203 202 202 201 198 190 179 181 194 194 223 245 257 262 242 234 232 231 228 225 230 229 230 232 231 231 231 232 233 231 230 231 234 237 238
217 216 209 208 210 213 212 207 206 212 206 205 207 209 208 211 188 184 201 229 248 268 270 247 233 230 230 223 229 228 231 231 229 229 230 231 233 232 232 232 235 239 241
219 212 207 212 216 214 215 207 210 216 211 215 219 214 215 220 206 198 193 191 234 267 262 259 251 230 233 227 230 223 230 226 226 227 229 231 232 232 230 230 232 236 239
216 213 212 217 222 218 215 207 213 218 215 219 223 220 221 223 215 214 205 195 200 237 258 251 251 245 231 230 232 225 226 225 222 224 226 228 230 229 229 230 230 232 234
212 210 219 224 229 225 217 213 218 219 217 223 221 223 226 223 219 214 211 210 207 215 245 246 239 250 245 247 231 227 233 228 225 223 224 227 229 228 228 228 228 229 230
208 214 222 225 229 229 222 218 224 220 223 227 226 225 230 222 217 215 209 209 214 210 236 257 241 250 245 252 248 229 232 230 231 223 223 224 227 228 228 229 228 228 228
212 217 221 229 233 231 223 222 230 227 225 227 228 226 231 225 220 216 210 215 216 212 222 248 252 241 243 244 240 236 236 230 231 226 222 225 224 224 226 228 227 227 228
211 215 216 231 241 238 231 229 231 233 232 233 229 226 229 221 225 222 216 219 220 218 218 235 252 242 246 245 237 243 237 237 235 230 224 225 224 223 224 226 226 226 226
198 214 223 237 249 248 243 239 235 237 236 237 236 232 230 223 226 224 222 220 217 217 218 232 247 248 244 235 217 232 246 232 243 247 237 228 223 221 224 227 229 229 229
206 208 206 255 279 272 279 263 243 238 235 239 242 241 240 230 225 221 221 217 211 214 220 231 243 246 242 221 224 219 237 245 244 229 233 233 219 225 226 229 231 230 228
176 113 94 69 6 331 328 301 258 242 232 232 241 249 249 241 231 220 220 218 210 215 228 234 242 245 253 240 232 221 227 230 247 213 213 238 210 235 240 232 231 226 224
119 96 83 65 20 352 355 353 359 331 220 237 248 255 255 288 263 231 225 235 241 244 233 230 241 248 253 250 234 232 222 221 235 218 197 244 226 242 251 250 235 231 228
102 96 69 50 33 9 13 15 26 73 64 49 35 12 13 357 357 355 57 62 352 312 264 233 234 251 255 257 236 234 233 227 233 228 196 241 243 251 267 262 251 240 239
97 79 60 58 49 22 24 28 58 84 74 55 46 43 42 35 25 51 82 62 15 2 27 48 1 315 338 336 277 205 215 222 254 248 190 232 256 261 264 262 269 253 243
94 80 62 53 51 33 25 35 52 80 76 61 52 47 47 45 40 50 65 67 28 354 4 14 20 12 4 9 31 219 231 233 245 259 206 215 249 252 278 275 283 288 273